Powrót do katalogu

GLOBALSTAR M097

AktywnyŁącznośćLEO
NORAD 39072·PAYLOAD·🇺🇸 United States

Wystrzelony Feb 6, 2013 z Baikonur Cosmodrome

Loading…

Następne Przeloty (najbliższe 24 godziny)

TLE

ŚwieżeSource: Space-Track

Epoka: Sep 14, 2026, 13:28 UTC

1 39072U 13005A   26257.56148266 -.00000100  00000-0  22171-4 0  9999
2 39072  52.0072 331.2713 0000568 120.6495 239.4427 12.62271230628198

Śledź GLOBALSTAR M097 w czasie rzeczywistym z AllMySat

Download on the App Store